Blue Bell, PA

10:20 PM EST on December 09, 2016 (GMT -0500)
Philadelphia Wings Airport

Weather History for KLOM - October, 2011

Change the Weather History Date:

Wednesday, October 19, 2011

  Actual Average (KPNE) Record (KPNE)
Temperature  
Mean Temperature 60 °F -  
Max Temperature 62 °F 61 °F 87 °F (2016)
Min Temperature 59 °F 42 °F 30 °F (2015)
Degree Days  
Heating Degree Days 4    
Growing Degree Days 10 (Base 50)    
Moisture  
Dew Point 60 °F    
Average Humidity 94    
Maximum Humidity 100    
Minimum Humidity 82    
Precipitation  
Precipitation 0.35 in - - ()
Sea Level Pressure  
Sea Level Pressure 29.63 in    
Wind  
Wind Speed - (North)    
Max Wind Speed -    
Max Gust Speed -    
Visibility 5 miles    
Events      
Averages and records for this station are not official NWS values.
T = Trace of Precipitation, MM = Missing Value Source: NWS Daily Summary

Daily Weather History Graph

Daily Weather History Graph

Search for Another Location

Airport or City:

Trip Planner

Search our weather history database for the weather conditions in past years. The results will help you decide how hot, cold, wet, or windy it might be!

Date:

Astronomy

Oct. 19, 2011 Rise Set
Actual Time 7:15 AM EDT 6:15 PM EDT
Civil Twilight 6:48 AM EDT 6:43 PM EDT
Nautical Twilight 6:16 AM EDT 7:14 PM EDT
Astronomical Twilight 5:45 AM EDT 7:46 PM EDT
Moon 11:58 PM EDT (10/19) 1:45 PM EDT (10/19)
Length of Visible Light 11h 55m
Length of Day
11h 00m
Waning Gibbous, 55% of the Moon is Illuminated
Oct 19
Waning Gibbous
Oct 19
Last Quarter
Oct 26
New
Nov 2
First Quarter
Nov 10
Full

Hourly Weather History & Observations

Time (EDT) Temp. Dew Point Humidity Pressure Visibility Wind Dir Wind Speed Gust Speed Precip Events Conditions
12:15 AM 59.0 °F 53.6 °F 82% 29.84 in 10.0 mi North - - N/A   Overcast
12:35 AM 59.0 °F 55.4 °F 88% 29.82 in 10.0 mi North - - N/A   Overcast
12:55 AM 59.0 °F 55.4 °F 88% 29.80 in 10.0 mi North - - N/A   Overcast
1:15 AM 60.8 °F 57.2 °F 88% 29.80 in 7.0 mi North - - N/A   Overcast
1:35 AM 60.8 °F 59.0 °F 94% 29.79 in 5.0 mi North - - N/A   Overcast
1:55 AM 60.8 °F 59.0 °F 94% 29.80 in 4.0 mi North - - N/A   Overcast
2:15 AM 60.8 °F 59.0 °F 94% 29.79 in 4.0 mi North - - N/A   Overcast
2:35 AM 60.8 °F 59.0 °F 94% 29.79 in 3.0 mi North - - N/A   Overcast
2:55 AM 60.8 °F 59.0 °F 94% 29.78 in 4.0 mi North - - N/A   Overcast
3:15 AM 60.8 °F 59.0 °F 94% 29.77 in 5.0 mi North - - N/A   Overcast
3:35 AM 60.8 °F 59.0 °F 94% 29.77 in 7.0 mi North - - N/A   Overcast
3:55 AM 60.8 °F 59.0 °F 94% 29.77 in 7.0 mi North - - N/A   Overcast
4:15 AM 60.8 °F 59.0 °F 94% 29.76 in 7.0 mi North - - N/A   Overcast
4:35 AM 60.8 °F 59.0 °F 94% 29.75 in 5.0 mi North - - N/A   Overcast
5:15 AM 60.8 °F 60.8 °F 100% 29.76 in 3.0 mi North - - N/A   Overcast
5:35 AM 60.8 °F 60.8 °F 100% 29.75 in 2.0 mi North - - 0.02 in   Overcast
6:15 AM 62.6 °F 60.8 °F 94% 29.72 in 2.0 mi North - - 0.03 in   Overcast
6:35 AM 62.6 °F 60.8 °F 94% 29.74 in 2.5 mi North - - 0.05 in   Overcast
6:55 AM 62.6 °F 60.8 °F 94% 29.72 in 2.0 mi North - - 0.06 in   Overcast
7:15 AM 62.6 °F 60.8 °F 94% 29.71 in 5.0 mi North - - 0.01 in   Overcast
7:35 AM 62.6 °F 60.8 °F 94% 29.70 in 5.0 mi North - - 0.01 in   Scattered Clouds
7:55 AM 62.6 °F 60.8 °F 94% 29.70 in 7.0 mi North - - 0.01 in   Mostly Cloudy
8:15 AM 62.6 °F 60.8 °F 94% 29.68 in 10.0 mi North - - 0.01 in   Mostly Cloudy
8:35 AM 62.6 °F 59.0 °F 88% 29.68 in 10.0 mi North - - 0.01 in   Mostly Cloudy
8:55 AM 62.6 °F 59.0 °F 88% 29.69 in 10.0 mi North - - 0.01 in   Mostly Cloudy
9:15 AM 62.6 °F 57.2 °F 82% 29.69 in 10.0 mi North - - N/A   Mostly Cloudy
9:35 AM 60.8 °F 57.2 °F 88% 29.69 in 7.0 mi North - - 0.01 in   Overcast
9:55 AM 60.8 °F 59.0 °F 94% 29.67 in 7.0 mi North - - 0.02 in   Overcast
10:15 AM 60.8 °F 59.0 °F 94% 29.66 in 4.0 mi North - - 0.03 in   Overcast
10:35 AM 60.8 °F 59.0 °F 94% 29.65 in 3.0 mi North - - 0.05 in   Overcast
10:55 AM 60.8 °F 59.0 °F 94% 29.64 in 2.5 mi North - - 0.06 in   Overcast
11:15 AM 62.6 °F 60.8 °F 94% 29.62 in 2.5 mi North - - 0.01 in   Overcast
11:35 AM 62.6 °F 60.8 °F 94% 29.62 in 2.5 mi North - - 0.03 in   Overcast
11:55 AM 62.6 °F 60.8 °F 94% 29.61 in 1.8 mi North - - 0.03 in   Overcast
12:15 PM 62.6 °F 60.8 °F 94% 29.59 in 3.0 mi North - - 0.01 in   Overcast
12:55 PM 62.6 °F 62.6 °F 100% 29.56 in 1.8 mi North - - 0.02 in   Overcast
1:15 PM 62.6 °F 62.6 °F 100% 29.54 in 1.8 mi North - - 0.02 in   Overcast
1:35 PM 62.6 °F 60.8 °F 94% 29.54 in 1.8 mi North - - 0.03 in   Overcast
1:55 PM 62.6 °F 60.8 °F 94% 29.52 in 2.0 mi North - - 0.03 in   Overcast
2:15 PM 62.6 °F 60.8 °F 94% 29.52 in 3.0 mi North - - N/A   Overcast
2:35 PM 62.6 °F 60.8 °F 94% 29.51 in 7.0 mi North - - N/A   Overcast
2:55 PM 62.6 °F 60.8 °F 94% 29.49 in 4.0 mi North - - N/A   Overcast
3:15 PM 62.6 °F 60.8 °F 94% 29.49 in 4.0 mi North - - N/A   Overcast
3:55 PM 62.6 °F 60.8 °F 94% 29.49 in 2.0 mi North - - N/A   Overcast
4:15 PM 62.6 °F 60.8 °F 94% 29.48 in 2.5 mi North - - 0.01 in   Overcast
4:55 PM 62.6 °F 60.8 °F 94% 29.47 in 2.0 mi North - - 0.01 in   Overcast
5:15 PM 62.6 °F 60.8 °F 94% 29.45 in 2.0 mi North - - N/A   Overcast
5:35 PM 62.6 °F 60.8 °F 94% 29.45 in 3.0 mi North - - N/A   Overcast
5:55 PM 62.6 °F 60.8 °F 94% 29.44 in 2.5 mi North - - N/A   Overcast
6:15 PM 62.6 °F 60.8 °F 94% 29.44 in 4.0 mi North - - N/A   Overcast
6:35 PM 62.6 °F 60.8 °F 94% 29.44 in 5.0 mi North - - N/A   Overcast
6:55 PM 62.6 °F 60.8 °F 94% 29.43 in 4.0 mi North - - N/A   Overcast
7:15 PM 62.6 °F 60.8 °F 94% 29.42 in 2.5 mi North - - 0.01 in   Overcast
7:35 PM 62.6 °F 62.6 °F 100% 29.40 in 3.0 mi North - - 0.04 in   Overcast
7:55 PM 62.6 °F 62.6 °F 100% 29.40 in 3.0 mi North - - 0.08 in   Overcast
8:15 PM 62.6 °F 62.6 °F 100% 29.39 in 3.0 mi North - - 0.02 in   Overcast
8:35 PM 62.6 °F 62.6 °F 100% 29.39 in 2.0 mi North - - 0.03 in   Overcast
8:55 PM 62.6 °F 62.6 °F 100% 29.38 in 2.5 mi North - - 0.04 in   Overcast
9:35 PM 64.4 °F 62.6 °F 94% 29.35 in 4.0 mi North - - 0.30 in   Overcast
9:55 PM 64.4 °F 62.6 °F 94% 29.34 in 2.5 mi North - - 0.42 in   Overcast
10:15 PM 64.4 °F 64.4 °F 100% 29.33 in 3.0 mi North - - 0.01 in   Overcast
10:35 PM 66.2 °F 64.4 °F 94% 29.32 in 3.0 mi North - - 0.02 in   Overcast
10:55 PM 66.2 °F 64.4 °F 94% 29.32 in 3.0 mi North - - 0.03 in   Overcast
11:15 PM 64.4 °F 64.4 °F 100% 29.31 in 2.5 mi North - - 0.01 in   Overcast
11:35 PM 64.4 °F 64.4 °F 100% 29.31 in 3.0 mi North - - 0.04 in   Overcast
11:55 PM 66.2 °F 64.4 °F 94% 29.31 in 7.0 mi North - - 0.04 in   Overcast